Location: Bühlhof
(48.7849°N, 8.6361°E)
Time: 00:20:13
(UTC+00:00)

Cosmos 2239 Rocket - Pass Details

Date: 19 January 2026
Orbit: 953 x 991 km, 82.9° (Epoch: 18 February)

Event Time Altitude Azimuth Distance (km) Brightness Sun altitude
Rises 17:28:23 0° 350° (N) 3,701 7.5 -13.8°
Reaches altitude 10° 17:30:55 10° 351° (N) 2,744 6.8 -14.2°
Maximum altitude 17:37:14 88° 80° (E) 981 4.5 -15.2°
Drops below altitude 10° 17:43:26 10° 172° (S) 2,698 6.9 -16.2°
Sets 17:45:54 0° 172° (S) 3,635 7.6 -16.6°
